Location: Milevsko
(49.4500°N, 14.3670°E)
Time: 18:38:29
(UTC+02:00)

ISS - Pass Details

Date: 18 April 2026
Orbit: 414 x 424 km, 51.6° (Epoch: 21 May)

Event Time Altitude Azimuth Distance (km) Brightness Sun altitude
Exits shadow 05:24:52 - 198° (SSW) 2,283 -0.4 -6.9°
Reaches altitude 10° 05:27:22 10° 176° (S) 1,495 -1.2 -6.5°
Maximum altitude 05:29:25 15° 138° (SE) 1,215 -1.2 -6.2°
Drops below altitude 10° 05:31:29 10° 100° (E) 1,506 0.0 -5.9°
Sets 05:34:12 0° 77° (ENE) 2,378 2.3 -5.5°
